Change the Weather History Date:

Sunday, April 29, 2012

  Actual Average Record
Temperature  
Mean Temperature 48 °F -  
Max Temperature 55 °F 62 °F 84 °F (2001)
Min Temperature 42 °F 37 °F 5 °F (1998)
Degree Days  
Heating Degree Days 16    
Moisture  
Dew Point 43 °F    
Average Humidity 86    
Maximum Humidity 100    
Minimum Humidity 67    
Precipitation  
Precipitation 0.00 in - - ()
Sea Level Pressure  
Sea Level Pressure 30.10 in    
Wind  
Wind Speed 11 mph (SE)    
Max Wind Speed 15 mph    
Max Gust Speed 22 mph    
Visibility 7 miles    
Events      
Averages and records for this station are not official NWS values.
T = Trace of Precipitation, MM = Missing Value Source: NWS Daily Summary

Daily Weather History Graph

Daily Weather History Graph

Search for Another Location

Airport or City:

Trip Planner

Search our weather history database for the weather conditions in past years. The results will help you decide how hot, cold, wet, or windy it might be!

Date:

Astronomy

Apr. 29, 2012 Rise Set
Actual Time 6:15 AM CDT 8:28 PM CDT
Civil Twilight 5:42 AM CDT 9:00 PM CDT
Nautical Twilight 5:02 AM CDT 9:41 PM CDT
Astronomical Twilight 4:18 AM CDT 10:26 PM CDT
Moon 1:02 PM CDT (4/29) 2:26 AM CDT (4/29)
Length of Visible Light 15h 18m
Length of Day
14h 13m
First Quarter, 53% of the Moon is Illuminated
Apr 29
First Quarter
May 5
Full
May 12
Last Quarter
May 20
New
May 28
First Quarter

Hourly Weather History & Observations

Time (CDT) Temp. Windchill Dew Point Humidity Pressure Visibility Wind Dir Wind Speed Gust Speed Precip Events Conditions
12:15 AM 42.8 °F 35.4 °F 41.0 °F 93% 30.14 in 5.0 mi ESE 15.0 mph 21.9 mph N/A   Overcast
12:35 AM 42.8 °F 36.2 °F 41.0 °F 93% 30.15 in 7.0 mi ESE 12.7 mph 18.4 mph N/A   Overcast
12:54 AM 42.8 °F 35.8 °F 41.0 °F 93% 30.14 in 7.0 mi ESE 13.8 mph 19.6 mph N/A   Overcast
1:14 AM 42.8 °F 36.2 °F 41.0 °F 93% 30.15 in 7.0 mi ESE 12.7 mph - N/A   Overcast
1:55 AM 42.8 °F 35.8 °F 41.0 °F 93% 30.15 in 7.0 mi SE 13.8 mph 18.4 mph N/A   Overcast
2:15 AM 42.8 °F 36.2 °F 41.0 °F 93% 30.15 in 7.0 mi ESE 12.7 mph 20.7 mph N/A   Overcast
2:34 AM 42.8 °F 35.4 °F 41.0 °F 93% 30.15 in 7.0 mi SE 15.0 mph 19.6 mph N/A   Overcast
2:55 AM 42.8 °F 37.0 °F 41.0 °F 93% 30.15 in 5.0 mi SE 10.4 mph - N/A   Overcast
3:14 AM 42.8 °F 36.6 °F 41.0 °F 93% 30.14 in 5.0 mi SE 11.5 mph - N/A   Overcast
3:35 AM 42.8 °F 36.2 °F 41.0 °F 93% 30.14 in 5.0 mi SE 12.7 mph - N/A   Overcast
3:54 AM 42.8 °F 36.2 °F 42.8 °F 100% 30.14 in 5.0 mi SE 12.7 mph - N/A   Overcast
4:14 AM 42.8 °F 36.6 °F 42.8 °F 100% 30.15 in 5.0 mi SE 11.5 mph - N/A   Overcast
4:35 AM 42.8 °F 36.6 °F 42.8 °F 100% 30.15 in 4.0 mi SE 11.5 mph - N/A   Overcast
4:54 AM 42.8 °F 37.0 °F 42.8 °F 100% 30.14 in 4.0 mi SE 10.4 mph 16.1 mph N/A   Overcast
5:14 AM 42.8 °F 36.6 °F 42.8 °F 100% 30.14 in 4.0 mi SE 11.5 mph - N/A   Overcast
5:35 AM 42.8 °F 37.5 °F 42.8 °F 100% 30.14 in 4.0 mi SE 9.2 mph - N/A   Overcast
5:55 AM 42.8 °F 38.0 °F 42.8 °F 100% 30.14 in 4.0 mi SE 8.1 mph - N/A   Overcast
6:54 AM 44.6 °F 39.7 °F 42.8 °F 93% 30.14 in 4.0 mi SE 9.2 mph - N/A   Overcast
7:15 AM 44.6 °F 39.2 °F 42.8 °F 93% 30.14 in 5.0 mi SSE 10.4 mph - N/A   Overcast
7:34 AM 44.6 °F 38.4 °F 42.8 °F 93% 30.14 in 4.0 mi SSE 12.7 mph - N/A   Overcast
7:55 AM 44.6 °F 38.8 °F 42.8 °F 93% 30.15 in 4.0 mi SSE 11.5 mph 16.1 mph N/A   Overcast
8:14 AM 44.6 °F 38.4 °F 42.8 °F 93% 30.15 in 5.0 mi SSE 12.7 mph 17.3 mph N/A   Overcast
8:35 AM 46.4 °F 40.4 °F 42.8 °F 87% 30.15 in 5.0 mi SSE 13.8 mph 19.6 mph N/A   Overcast
8:55 AM 46.4 °F 41.1 °F 42.8 °F 87% 30.15 in 5.0 mi SSE 11.5 mph - N/A   Overcast
9:14 AM 46.4 °F 41.5 °F 42.8 °F 87% 30.15 in 7.0 mi South 10.4 mph - N/A   Overcast
9:34 AM 46.4 °F 42.9 °F 42.8 °F 87% 30.15 in 7.0 mi South 6.9 mph - N/A   Overcast
9:54 AM 46.4 °F 41.5 °F 42.8 °F 87% 30.14 in 7.0 mi SSE 10.4 mph - N/A   Overcast
10:14 AM 46.4 °F 42.4 °F 42.8 °F 87% 30.15 in 7.0 mi SSE 8.1 mph - N/A   Overcast
10:34 AM 46.4 °F 42.4 °F 42.8 °F 87% 30.14 in 5.0 mi SE 8.1 mph - N/A   Overcast
10:54 AM 46.4 °F 41.5 °F 44.6 °F 93% 30.15 in 5.0 mi SSE 10.4 mph - N/A   Overcast
11:14 AM 46.4 °F 42.4 °F 44.6 °F 93% 30.14 in 5.0 mi SE 8.1 mph 16.1 mph N/A   Overcast
11:35 AM 48.2 °F - 44.6 °F 87% 30.15 in 5.0 mi SSE 9.2 mph - N/A   Overcast
11:55 AM 46.4 °F 41.1 °F 44.6 °F 93% 30.15 in 4.0 mi SE 11.5 mph - N/A   Overcast
12:15 PM 48.2 °F - 44.6 °F 87% 30.15 in 5.0 mi SSE 9.2 mph 16.1 mph N/A   Overcast
12:35 PM 48.2 °F - 44.6 °F 87% 30.14 in 5.0 mi SSE 13.8 mph - N/A   Overcast
12:54 PM 48.2 °F - 44.6 °F 87% 30.14 in 5.0 mi SSE 8.1 mph 11.5 mph N/A   Overcast
1:15 PM 48.2 °F - 44.6 °F 87% 30.13 in 7.0 mi South 9.2 mph - N/A   Overcast
1:34 PM 50.0 °F - 44.6 °F 82% 30.12 in 10.0 mi South 5.8 mph - N/A   Overcast
1:55 PM 51.8 °F - 44.6 °F 76% 30.11 in 10.0 mi South 4.6 mph - N/A   Overcast
2:14 PM 53.6 °F - 44.6 °F 72% 30.10 in 10.0 mi South 8.1 mph - N/A   Overcast
2:34 PM 53.6 °F - 44.6 °F 72% 30.09 in 7.0 mi SSE 8.1 mph - N/A   Mostly Cloudy
2:55 PM 55.4 °F - 44.6 °F 67% 30.08 in 10.0 mi SE 10.4 mph - N/A   Mostly Cloudy
3:14 PM 53.6 °F - 44.6 °F 72% 30.08 in 10.0 mi ESE 11.5 mph 16.1 mph N/A   Mostly Cloudy
3:34 PM 55.4 °F - 44.6 °F 67% 30.07 in 10.0 mi SE 9.2 mph - N/A   Overcast
3:54 PM 55.4 °F - 44.6 °F 67% 30.06 in 10.0 mi SE 10.4 mph - N/A   Mostly Cloudy
4:15 PM 55.4 °F - 44.6 °F 67% 30.06 in 10.0 mi SE 11.5 mph - N/A   Mostly Cloudy
4:35 PM 53.6 °F - 44.6 °F 72% 30.05 in 10.0 mi ESE 10.4 mph - N/A   Overcast
4:54 PM 53.6 °F - 42.8 °F 67% 30.05 in 10.0 mi SE 10.4 mph - N/A   Overcast
5:14 PM 53.6 °F - 44.6 °F 72% 30.04 in 10.0 mi ESE 15.0 mph - N/A   Mostly Cloudy
5:34 PM 55.4 °F - 44.6 °F 67% 30.03 in 10.0 mi SE 11.5 mph - N/A   Scattered Clouds
5:54 PM 53.6 °F - 42.8 °F 67% 30.04 in 10.0 mi SSE 10.4 mph - N/A   Mostly Cloudy
6:14 PM 53.6 °F - 42.8 °F 67% 30.04 in 10.0 mi SE 10.4 mph 16.1 mph N/A   Overcast
6:35 PM 51.8 °F - 42.8 °F 71% 30.03 in 10.0 mi SE 9.2 mph - N/A   Overcast
6:54 PM 51.8 °F - 42.8 °F 71% 30.03 in 10.0 mi SSE 9.2 mph - N/A   Overcast
7:14 PM 51.8 °F - 42.8 °F 71% 30.03 in 10.0 mi SSE 8.1 mph - N/A   Overcast
7:34 PM 50.0 °F - 42.8 °F 76% 30.03 in 10.0 mi South 5.8 mph - N/A   Scattered Clouds
7:54 PM 50.0 °F - 42.8 °F 76% 30.02 in 7.0 mi South 4.6 mph - N/A   Clear
8:15 PM 48.2 °F - 42.8 °F 82% 30.02 in 7.0 mi South 3.5 mph - N/A   Clear
8:34 PM 48.2 °F - 42.8 °F 82% 30.02 in 10.0 mi SSE 4.6 mph - N/A   Clear
9:15 PM 46.4 °F 45.2 °F 42.8 °F 87% 30.02 in 7.0 mi SSE 3.5 mph - N/A   Clear
9:34 PM 46.4 °F 45.2 °F 42.8 °F 87% 30.02 in 7.0 mi SSE 3.5 mph - N/A   Clear
9:54 PM 46.4 °F 45.2 °F 42.8 °F 87% 30.02 in 7.0 mi SSE 3.5 mph - N/A   Clear
10:14 PM 44.6 °F 42.2 °F 42.8 °F 93% 30.01 in 7.0 mi SE 4.6 mph - N/A   Scattered Clouds
10:34 PM 44.6 °F 43.1 °F 42.8 °F 93% 30.01 in 7.0 mi South 3.5 mph - N/A   Scattered Clouds
10:54 PM 44.6 °F - 42.8 °F 93% 30.01 in 5.0 mi Calm Calm - N/A   Clear
11:14 PM 44.6 °F - 42.8 °F 93% 30.01 in 5.0 mi Calm Calm - N/A   Mostly Cloudy
11:35 PM 46.4 °F - 44.6 °F 93% 30.00 in 5.0 mi Calm Calm - N/A   Overcast
11:55 PM 46.4 °F - 44.6 °F 93% 29.99 in 5.0 mi Calm Calm - N/A   Overcast